This is the latest recevied weather packets stored in our database for station/object N8ESC. If no packets are shown the sender has not sent any weather packets the latest 10 day(s).
| Time | Temp. | Humidity | Pressure | Rain* | Wind** | Luminosity | Snow |
|---|---|---|---|---|---|---|---|
| 1777989809 | 7.78° C | 50% | 1003.6 hPa | 0 mm | - | 163 W/m² | - |
| 1777989506 | 7.78° C | 49% | 1003.2 hPa | 0 mm | - | 182 W/m² | - |
| 1777989202 | 7.78° C | 50% | 1003.4 hPa | 0 mm | - | 180 W/m² | - |
| 1777988898 | 7.78° C | 49% | 1003.2 hPa | 0 mm | - | 196 W/m² | - |
| 1777988595 | 7.78° C | 50% | 1003.2 hPa | 0 mm | - | 479 W/m² | - |
| 1777988292 | 7.78° C | 50% | 1003.4 hPa | 0 mm | - | 177 W/m² | - |
| 1777987989 | 7.22° C | 52% | 1003.2 hPa | 0 mm | - | 281 W/m² | - |
| 1777987684 | 7.22° C | 53% | 1003.1 hPa | 0 mm | - | 213 W/m² | - |
| 1777987381 | 7.22° C | 52% | 1003 hPa | 0 mm | - | 199 W/m² | - |
| 1777987079 | 6.67° C | 53% | 1003 hPa | 0 mm | - | 344 W/m² | - |
| 1777986776 | 6.67° C | 53% | 1003 hPa | 0 mm | - | 182 W/m² | - |
| 1777986474 | 6.67° C | 53% | 1002.8 hPa | 0 mm | - | 156 W/m² | - |
| 1777986172 | 6.67° C | 55% | 1002.7 hPa | 0 mm | - | 177 W/m² | - |
| 1777985869 | 6.67° C | 55% | 1002.8 hPa | 0 mm | - | 166 W/m² | - |
| 1777985566 | 6.11° C | 56% | 1002.7 hPa | 0 mm | - | 219 W/m² | - |
| 1777985262 | 6.11° C | 56% | 1002.6 hPa | 0 mm | - | 112 W/m² | - |
| 1777984959 | 6.11° C | 58% | 1002.8 hPa | 0 mm | - | 107 W/m² | - |
| 1777984655 | 5.56° C | 58% | 1002.8 hPa | 0 mm | - | 105 W/m² | - |
| 1777984352 | 5.56° C | 59% | 1002.8 hPa | 0 mm | - | 98 W/m² | - |
| 1777984048 | 5.56° C | 60% | 1002.6 hPa | 0 mm | - | 93 W/m² | - |
| 1777983745 | 5.56° C | 60% | 1002.7 hPa | 0 mm | - | 80 W/m² | - |
| 1777983442 | 5.56° C | 60% | 1002.9 hPa | 0 mm | - | 73 W/m² | - |
| 1777983139 | 5.56° C | 61% | 1002.8 hPa | 0 mm | - | 67 W/m² | - |
| 1777982835 | 5.56° C | 61% | 1002.8 hPa | 0 mm | - | 53 W/m² | - |
| 1777982531 | 5.56° C | 62% | 1002.5 hPa | 0 mm | - | 53 W/m² | - |
* Rain latest hour (hover to see other rain measurements)
** Current wind speed in m/s (hover to see current wind gust speed)